Regional Weather Roundup
Issued by NWS

Home | Current Version | Previous Version | Text Only | Print | Product List | Glossary On
Versions: 1 2 3 4 5 6 7 8 9 10 11 12 13 14 15 16 17 18 19 20 21 22 23 24 25 26 27 28 29 30 31 32 33 34 35 36 37 38 39 40 41 42 43 44 45 46 47 48 49 50
000
ASUS44 KBMX 020110
RWRAL

ALABAMA REGIONAL WEATHER ROUNDUP
NATIONAL WEATHER SERVICE BIRMINGHAM AL
800 PM CDT SAT AUG 01 2015

NOTE: "FAIR" INDICATES FEW OR NO CLOUDS BELOW 12,000 FEET
WITH NO SIGNIFICANT WEATHER AND/OR OBSTRUCTIONS TO VISIBILITY.

THE REMARK "TC" DENOTES TEMPERATURE IN DEGREES CELSIUS.

ALZ001>011-014-016>018-020-020200-
NORTH ALABAMA

CITY           SKY/WX    TMP DP  RH WIND       PRES   REMARKS
MUSCLE SHOALS  CLEAR     84  64  50 N5        29.95S
HUNTSVILLE     PTCLDY    86  60  41 NE5       29.94S
DECATUR        CLEAR     77  69  76 N7        29.95R
HALEYVILLE     FAIR      78  68  71 CALM      29.99R
GADSDEN        CLEAR     84  55  37 N5        29.92R
$$

ALZ012-013-022-023-030>036-040>044-020200-
WEST CENTRAL ALABAMA

CITY           SKY/WX    TMP DP  RH WIND       PRES   REMARKS
TUSCALOOSA     PTCLDY    87  56  34 N6        29.90R
$$

ALZ015-024>027-033>036-040>044-020200-
CENTRAL ALABAMA

CITY           SKY/WX    TMP DP  RH WIND       PRES   REMARKS
BIRMINGHAM     PTCLDY    86  56  35 N6        29.94R
MONTGOMERY     CLEAR     88  70  55 NE7       29.87R HX  93
SHELBY CO ARPT CLEAR     81  64  56 NW5       29.91R
MAXWELL AFB    CLEAR     88  72  59 NE5       29.87R HX  94
GREENVILLE     FAIR      88  69  53 N3        29.87  HX  92
$$

ALZ019-021-028-029-037-038-045>048-020200-
EAST CENTRAL ALABAMA

CITY           SKY/WX    TMP DP  RH WIND       PRES   REMARKS
ANNISTON       CLEAR     86  52  30 N8        29.92R
ALEXANDER CITY CLEAR     81  70  70 CALM      29.91S
AUBURN         CLEAR     82  70  65 NE6       29.93R
$$

ALZ051>064-020200-
SOUTHWEST ALABAMA

CITY           SKY/WX    TMP DP  RH WIND       PRES   REMARKS
MOBILE         PTCLDY    82  72  71 NW5       29.88S
BROOKLEY FIELD CLEAR     86  66  51 N8        29.87S
EVERGREEN      CLEAR     85  70  60 NW3       29.86S
$$

ALZ049-050-065>069-020200-
SOUTHEAST ALABAMA

CITY           SKY/WX    TMP DP  RH WIND       PRES   REMARKS
DOTHAN         PTCLDY    82  74  76 NW6       29.90R
OZARK          MOCLDY    81  76  83 N2        29.86R
TROY           TSTM      77  74  90 SE6       29.92R FOG
EUFAULA        CLOUDY    78  74  87 E9G18     29.91R
$$


USA.gov is the U.S. government's official web portal to all federal, state and local government web resources and services.